Regional Weather Roundup
Issued by NWS

Home | Current Version | Previous Version | Text Only | Print | Product List | Glossary On
Versions: 1 2 3 4 5 6 7 8 9 10 11 12 13 14 15 16 17 18 19 20 21 22 23 24 25 26 27 28 29 30 31 32 33 34 35 36 37 38 39 40 41 42 43 44 45 46 47 48 49 50
000
ASUS43 KOAX 270202
RWRNE

WEATHER ROUNDUP FOR NEBRASKA
NATIONAL WEATHER SERVICE OMAHA NE
800 PM CST THU FEB 26 2015

NOTES: SATELLITE DATA IS BEING USED TO AUGMENT CLOUD COVER ABOVE
       12000 FEET.
       "FAIR" INDICATES FEW OR NO CLOUDS BELOW 12,000 FEET WITH NO
       SIGNIFICANT WEATHER AND/OR OBSTRUCTIONS TO VISIBILITY.

  * THESE STATIONS DO NOT REPORT WEATHER SUCH AS RAIN...SNOW OR FOG.

NEZ001>004-019>022-054>056-270300-
NEBRASKA PANHANDLE

CITY           SKY/WX    TMP DP  RH WIND       PRES   REMARKS
SCOTTSBLUFF    PTCLDY    10   2  69 NE14      30.30R WCI  -6
ALLIANCE       CLEAR      6  -1  73 N7        30.31S WCI  -6
CHADRON        CLEAR      5  -4  66 CALM      30.38R
SIDNEY         CLOUDY    11   1  64 E9        30.27R WCI  -2
$$

NEZ057>060-069>072-079>082-270300-
SOUTHWEST NEBRASKA

CITY           SKY/WX    TMP DP  RH WIND       PRES   REMARKS
NORTH PLATTE   CLEAR      7  -6  55 NE9       30.40R WCI  -7
IMPERIAL         N/A     12   0  58 NE6       30.35R WCI   3
MCCOOK         CLEAR     14  -3  47 NE8       30.41R WCI   3
$$

NEZ005>010-023>029-035>040-094-270300-
NORTH CENTRAL NEBRASKA

CITY           SKY/WX    TMP DP  RH WIND       PRES   REMARKS
VALENTINE      CLEAR      6  -3  66 N5        30.45R WCI  -3
AINSWORTH      CLEAR      4  -3  70 N3        30.44S
BROKEN BOW     CLEAR      4  -7  60 N7        30.44R WCI  -8
ORD            CLEAR      5  -5  63 N6        30.48R WCI  -6
$$

NEZ041-046>049-061>064-073>077-083>087-270300-
SOUTH CENTRAL NEBRASKA

CITY           SKY/WX    TMP DP  RH WIND       PRES   REMARKS
GRAND ISLAND   CLEAR      5  -3  69 N8        30.50R WCI  -8
HASTINGS       CLEAR      6  -5  60 NE6       30.47R WCI  -4
HEBRON         CLEAR      9  -2  59 NE5       30.52R WCI   1
HOLDREGE       CLEAR      6 -10  47 NE8       30.44R WCI  -6
KEARNEY *      CLEAR      7  -6  56 NE7       30.46R WCI  -5
YORK             N/A      5   0  78 N6        30.51R WCI  -6
$$

NEZ011>018-030>034-042>045-270300-
NORTHEAST NEBRASKA

CITY           SKY/WX    TMP DP  RH WIND       PRES   REMARKS
NORFOLK        CLEAR      4  -1  80 N6        30.51R WCI  -7
BLAIR          CLEAR      7  -2  67 N5        30.52S WCI  -2
COLUMBUS *     PTCLDY     5  -8  56 N3        30.53S
TEKAMAH        CLEAR      3  -3  76 N6        30.56R WCI  -8
$$

NEZ050>053-065>068-078-088>093-270300-
SOUTHEAST NEBRASKA

CITY           SKY/WX    TMP DP  RH WIND       PRES   REMARKS
LINCOLN        CLEAR      5  -1  76 N6        30.56R WCI  -6
OMAHA EPPLEY   PTCLDY     7   0  73 N8        30.56R WCI  -6
FALLS CITY     CLEAR      6  -3  66 N6        30.56R WCI  -4
$$

NEZ044-045-051>053-067-270300-
OMAHA AREA

CITY           SKY/WX    TMP DP  RH WIND       PRES   REMARKS
OMAHA EPPLEY   PTCLDY     7   0  73 N8        30.56R WCI  -6
BLAIR          CLEAR      7  -2  67 N5        30.52S WCI  -2
$$


USA.gov is the U.S. government's official web portal to all federal, state and local government web resources and services.